This demonstration page uses our WeatherBlox Daily Observations layout. Learn more.

Left ArrowRight Arrow

Hourly Observations for December 8, 2022

Temp ( °F °C ) Dew Point ( °F °C ) Humidity (%) Winds ( mph kmh ) Pressure ( in mb ) Visibility ( mi km ) Precip ( " mm )
12:04 am 00:04 Cloudy with Light Rain 47 8.3 46 7.8 97 97 NE 5 7 30.22 1023 4 6 0.01 0.25
12:16 am 00:16 Cloudy with Light Rain 47 8.3 46 7.8 97 97 N 7 11 30.22 1023 3 5 0.02 0.51
12:52 am 00:52 Cloudy with Light Rain 47 8.3 46 7.8 97 97 ENE 9 15 30.19 1022 4 6 0.03 0.76
1:30 am 01:30 Cloudy with Light Rain 47 8.3 47 8.3 100 100 SE 5 7 30.21 1023 4 6 0.04 1.02
1:47 am 01:47 Cloudy with Light Rain 48 9 46 8 93 93 SE 3 6 30.21 1023 4 6 0.06 1.52
1:52 am 01:52 Cloudy with Rain 48 8.9 48 8.9 100 100 Calm 30.19 1022 4 6 0.06 1.52
2:52 am 02:52 Cloudy with Light Rain 49 9.4 48 8.9 97 97 E 3 6 30.19 1022 5 8 0.11 2.79
3:02 am 03:02 Cloudy with Light Rain 49 9.4 48 8.9 97 97 SE 10 17 30.19 1022 5 8 0.01 0.25
3:12 am 03:12 Cloudy with Rain 49 9.4 48 8.9 97 97 SE 10 17 30.17 1022 5 8 0.01 0.25
3:32 am 03:32 Cloudy with Light Rain 50 10 49 9.4 96 96 SSE 7 11 30.18 1022 9 14 0.04 1.02
3:44 am 03:44 Cloudy with Light Rain 50 10 49 9.4 96 96 SE 6 9 30.18 1022 9 14 0.05 1.27
3:52 am 03:52 Cloudy with Light Rain 50 10 49 9.4 96 96 SE 7 11 30.17 1022 7 11 0.05 1.27
4:15 am 04:15 Cloudy with Light Rain 49 9.4 48 8.9 97 97 ESE 13 20 30.12 1020 9 14 0.04 1.02
4:29 am 04:29 Cloudy with Light Rain 49 9.4 48 8.9 97 97 SE 14 22 30.12 1020 10 16 0.05 1.27
4:36 am 04:36 Cloudy with Light Rain 49 9.4 48 8.9 97 97 SE 13 20 30.12 1020 10 16 0.05 1.27
4:52 am 04:52 Cloudy with Light Rain 50 10 48 8.9 93 93 SSE 13 20 30.11 1020 10 16 0.05 1.27
5:52 am 05:52 Cloudy 50 10 49 9.4 96 96 SSE 6 9 30.15 1021 10 16 0.01 0.25
6:52 am 06:52 Cloudy 50 10 49 9.4 96 96 ENE 5 7 30.13 1020 10 16 0.01 0.13
7:52 am 07:52 Cloudy with Light Rain 50 10 48 8.9 93 93 SE 3 6 30.17 1022 10 16 0.01 0.13
8:52 am 08:52 Cloudy 50 10 48 8.9 93 93 SE 6 9 30.17 1022 8 13 0.01 0.25
9:16 am 09:16 Cloudy with Light Rain 50 10 49 9.4 96 96 ESE 6 9 30.17 1022 2 3 0.01 0.25
9:26 am 09:26 Cloudy with Mist and Fog 50 10 49 9.4 96 96 SE 8 13 30.17 1022 3 4 0.01 0.25
9:36 am 09:36 Cloudy with Mist and Fog 50 10 49 9.4 96 96 SE 8 13 30.16 1021 3 5 0.01 0.25
9:52 am 09:52 Cloudy with Mist and Fog 50 10 49 9.4 96 96 SSE 6 9 30.16 1021 3 5 0.01 0.25
10:52 am 10:52 Cloudy 51 10.6 50 10 96 96 SSE 6 9 30.16 1021 7 11 0.00 0.00
11:04 am 11:04 Cloudy with Light Rain 51 10.6 50 10 96 96 SSE 6 9 30.16 1021 2 3 0.01 0.13
11:20 am 11:20 Cloudy with Light Rain 51 10.6 50 10 96 96 SSE 7 11 30.16 1021 2 3 0.01 0.25
11:28 am 11:28 Cloudy with Light Rain 52 11.1 51 10.6 97 97 SE 7 11 30.15 1021 2 2 0.02 0.51
11:34 am 11:34 Cloudy with Light Rain 52 11.1 51 10.6 97 97 SSE 7 11 30.15 1021 3 5 0.02 0.51
11:52 am 11:52 Cloudy with Mist and Fog 52 11.1 51 10.6 97 97 SSE 7 11 30.14 1021 6 10 0.02 0.51
12:26 pm 12:26 Cloudy with Mist and Fog 53 11.7 52 11.1 96 96 SSE 6 9 30.12 1020 3 5 0.01 0.13
12:33 pm 12:33 Cloudy with Light Rain 53 11.7 52 11.1 96 96 SSE 5 7 30.12 1020 2 3 0.01 0.13
12:45 pm 12:45 Cloudy with Light Rain 53 11.7 52 11.1 96 96 SSE 6 9 30.11 1020 5 8 0.01 0.25
12:52 pm 12:52 Cloudy with Mist and Fog 53 11.7 52 11.1 96 96 SSE 6 9 30.11 1020 3 5 0.01 0.25
1:52 pm 13:52 Cloudy 54 12.2 53 11.7 97 97 SE 6 9 30.10 1019 10 16 0.00 0.00
2:52 pm 14:52 Cloudy 55 12.8 54 12.2 96 96 SSE 5 7 30.09 1019 10 16 0.00 0.00
3:52 pm 15:52 Cloudy with Mist and Fog 55 12.8 54 12.2 96 96 SSE 5 7 30.09 1019 6 10 0.00 0.00
4:29 pm 16:29 Cloudy with Mist and Fog 55 12.8 54 12.2 96 96 SSE 6 9 30.10 1019 2 3 0.00 0.00
4:47 pm 16:47 Cloudy with Mist and Fog 55 13 54 12 94 94 SSE 7 11 30.10 1019 2 3 0.00 0.00
4:52 pm 16:52 Cloudy with Mist and Fog 55 12.8 54 12.2 96 96 SE 8 13 30.09 1019 2 3 0.00 0.00
4:57 pm 16:57 Cloudy with Mist and Fog 55 12.8 54 12.2 96 96 SSE 7 11 30.10 1019 3 5 0.00 0.00
5:13 pm 17:13 Cloudy with Mist and Fog 54 12.2 54 12.2 100 100 SSE 8 13 30.09 1019 3 5 0.00 0.00
5:52 pm 17:52 Cloudy with Mist and Fog 54 12.2 54 12.2 100 100 S 8 13 30.09 1019 2 3 0.00 0.00
6:19 pm 18:19 Cloudy with Mist and Fog 54 12.2 53 11.7 97 97 SSE 9 15 30.08 1019 3 5 0.00 0.00
6:52 pm 18:52 Cloudy with Mist and Fog 53 11.7 53 11.7 100 100 SSE 7 11 30.09 1019 3 4 0.00 0.00
7:13 pm 19:13 Cloudy with Mist and Fog 53 11.7 53 11.7 100 100 SSE 8 13 30.09 1019 5 8 0.00 0.00
7:52 pm 19:52 Cloudy with Mist and Fog 53 11.7 53 11.7 100 100 SSE 12 19 30.08 1019 2 2 0.00 0.00
8:12 pm 20:12 Cloudy with Mist and Fog 53 11.7 53 11.7 100 100 SSE 10 17 30.08 1019 3 4 0.00 0.00
8:37 pm 20:37 Cloudy with Mist and Fog 53 11.7 53 11.7 100 100 S 8 13 30.09 1019 2 3 0.00 0.00
8:49 pm 20:49 Cloudy with Mist and Fog 54 12 54 12 100 100 S 9 15 30.10 1019 3 4 0.00 0.00
8:52 pm 20:52 Cloudy with Mist and Fog 53 11.7 53 11.7 100 100 S 7 11 30.09 1019 3 4 0.00 0.00
9:18 pm 21:18 Cloudy with Mist and Fog 53 11.7 53 11.7 100 100 SSE 13 20 30.09 1019 1 2 0.00 0.00
9:33 pm 21:33 Mostly Clear with Mist and Fog 53 11.7 53 11.7 100 100 SSE 13 20 30.09 1019 1 1 0.00 0.00
9:52 pm 21:52 Mostly Clear with Light Rain 53 11.7 53 11.7 100 100 S 13 20 30.09 1019 1 1 0.01 0.13
10:33 pm 22:33 Mostly Clear with Mist and Fog 53 11.7 53 11.7 100 100 S 9 15 30.10 1019 1 2 0.01 0.25
10:52 pm 22:52 Cloudy with Mist and Fog 53 11.7 53 11.7 100 100 S 10 17 30.10 1019 2 3 0.01 0.25
11:05 pm 23:05 Cloudy with Mist and Fog 53 11.7 53 11.7 100 100 SSW 9 15 30.11 1020 3 5 0.00 0.00
11:52 pm 23:52 Cloudy 54 12.2 54 12.2 100 100 SW 7 11 30.11 1020 8 13 0.00 0.00

Powered by AerisWeather